TimeCST,TemperatureF,Dew PointF,Humidity,Sea Level PressureIn,VisibilityMPH,Wind Direction,Wind SpeedMPH,Gust SpeedMPH,PrecipitationIn,Events,Conditions,WindDirDegrees,DateUTC
12:15 AM,46.4,17.6,32,30.07,10.0,SW,16.1,-,N/A,,Clear,220,2012-11-29 06:15:00
12:35 AM,44.6,19.4,37,30.06,10.0,SW,15.0,-,N/A,,Clear,230,2012-11-29 06:35:00
12:55 AM,42.8,19.4,39,30.06,10.0,SW,13.8,-,N/A,,Clear,220,2012-11-29 06:55:00
1:15 AM,44.6,23.0,43,30.06,10.0,SW,16.1,-,N/A,,Clear,220,2012-11-29 07:15:00
1:35 AM,46.4,26.6,46,30.06,10.0,SW,17.3,-,N/A,,Clear,230,2012-11-29 07:35:00
1:55 AM,44.6,24.8,46,30.05,10.0,SW,16.1,-,N/A,,Clear,230,2012-11-29 07:55:00
2:15 AM,44.6,23.0,43,30.05,10.0,SW,16.1,-,N/A,,Clear,220,2012-11-29 08:15:00
2:35 AM,42.8,23.0,46,30.05,10.0,SW,15.0,-,N/A,,Clear,220,2012-11-29 08:35:00
2:55 AM,41.0,23.0,49,30.05,10.0,SW,15.0,-,N/A,,Clear,220,2012-11-29 08:55:00
3:35 AM,41.0,23.0,49,30.03,10.0,SW,13.8,-,N/A,,Clear,230,2012-11-29 09:35:00
3:55 AM,42.8,24.8,49,30.03,10.0,SW,15.0,-,N/A,,Clear,220,2012-11-29 09:55:00
4:15 AM,41.0,24.8,53,30.02,10.0,SSW,15.0,-,N/A,,Clear,210,2012-11-29 10:15:00
4:35 AM,37.4,23.0,56,30.02,10.0,SW,12.7,-,N/A,,Clear,220,2012-11-29 10:35:00
4:55 AM,37.4,24.8,60,30.02,10.0,WSW,12.7,-,N/A,,Clear,240,2012-11-29 10:55:00
5:15 AM,37.4,23.0,56,30.02,10.0,WSW,13.8,-,N/A,,Clear,240,2012-11-29 11:15:00
5:35 AM,37.4,23.0,56,30.01,10.0,WSW,15.0,-,N/A,,Clear,250,2012-11-29 11:35:00
5:55 AM,37.4,21.2,52,30.01,10.0,WSW,13.8,-,N/A,,Clear,250,2012-11-29 11:55:00
6:15 AM,37.4,19.4,48,30.01,10.0,WSW,15.0,-,N/A,,Clear,250,2012-11-29 12:15:00
6:35 AM,37.4,17.6,45,30.01,10.0,West,15.0,-,N/A,,Clear,260,2012-11-29 12:35:00
6:55 AM,35.6,15.8,44,30.01,10.0,West,12.7,-,N/A,,Clear,260,2012-11-29 12:55:00
7:15 AM,33.8,15.8,48,30.01,10.0,West,13.8,-,N/A,,Clear,270,2012-11-29 13:15:00
7:35 AM,32.0,14.0,48,30.03,10.0,West,11.5,-,N/A,,Clear,270,2012-11-29 13:35:00
7:55 AM,33.8,14.0,44,30.04,10.0,West,12.7,-,N/A,,Clear,260,2012-11-29 13:55:00
8:15 AM,33.8,14.0,44,30.04,10.0,West,12.7,-,N/A,,Clear,270,2012-11-29 14:15:00
8:35 AM,35.6,14.0,41,30.04,10.0,West,11.5,-,N/A,,Clear,270,2012-11-29 14:35:00
8:55 AM,39.2,14.0,36,30.05,10.0,West,11.5,-,N/A,,Clear,280,2012-11-29 14:55:00
9:15 AM,41.0,15.8,36,30.05,10.0,WNW,8.1,-,N/A,,Clear,290,2012-11-29 15:15:00
9:35 AM,46.4,17.6,32,30.06,10.0,NW,5.8,-,N/A,,Clear,310,2012-11-29 15:35:00
9:55 AM,53.6,15.8,22,30.05,10.0,West,6.9,-,N/A,,Clear,280,2012-11-29 15:55:00
10:15 AM,57.2,14.0,18,30.05,10.0,West,8.1,-,N/A,,Clear,270,2012-11-29 16:15:00
10:35 AM,60.8,12.2,15,30.05,10.0,West,8.1,-,N/A,,Clear,260,2012-11-29 16:35:00
10:55 AM,62.6,12.2,14,30.05,10.0,West,6.9,-,N/A,,Clear,280,2012-11-29 16:55:00
11:15 AM,64.4,12.2,13,30.05,10.0,Calm,Calm,-,N/A,,Clear,0,2012-11-29 17:15:00
11:35 AM,64.4,12.2,13,30.04,10.0,Calm,Calm,-,N/A,,Clear,0,2012-11-29 17:35:00
11:55 AM,64.4,12.2,13,30.03,10.0,Calm,Calm,-,N/A,,Clear,0,2012-11-29 17:55:00
12:15 PM,68.0,14.0,12,30.03,10.0,Calm,Calm,-,N/A,,Clear,0,2012-11-29 18:15:00
12:35 PM,68.0,12.2,12,30.02,10.0,West,3.5,-,N/A,,Clear,270,2012-11-29 18:35:00
12:55 PM,68.0,12.2,12,30.02,10.0,West,4.6,-,N/A,,Clear,260,2012-11-29 18:55:00
1:15 PM,68.0,12.2,12,30.01,10.0,SSW,4.6,-,N/A,,Clear,200,2012-11-29 19:15:00
1:35 PM,69.8,12.2,11,30.00,10.0,Calm,Calm,-,N/A,,Clear,0,2012-11-29 19:35:00
1:55 PM,69.8,14.0,12,30.00,10.0,SSW,6.9,-,N/A,,Clear,210,2012-11-29 19:55:00
2:15 PM,69.8,14.0,12,30.00,10.0,South,9.2,-,N/A,,Clear,180,2012-11-29 20:15:00
2:35 PM,69.8,14.0,12,29.99,10.0,SW,6.9,-,N/A,,Clear,220,2012-11-29 20:35:00
2:55 PM,69.8,14.0,12,29.98,10.0,South,8.1,-,N/A,,Clear,190,2012-11-29 20:55:00
3:15 PM,68.0,14.0,12,29.98,10.0,SSW,5.8,-,N/A,,Clear,210,2012-11-29 21:15:00
3:35 PM,68.0,14.0,12,29.99,10.0,South,9.2,-,N/A,,Clear,180,2012-11-29 21:35:00
3:55 PM,68.0,12.2,12,30.00,10.0,South,8.1,-,N/A,,Clear,180,2012-11-29 21:55:00
4:15 PM,68.0,14.0,12,29.99,10.0,South,9.2,-,N/A,,Clear,180,2012-11-29 22:15:00
4:35 PM,68.0,14.0,12,29.99,10.0,South,8.1,-,N/A,,Clear,170,2012-11-29 22:35:00
4:55 PM,64.4,15.8,15,30.00,10.0,SSE,6.9,-,N/A,,Clear,160,2012-11-29 22:55:00
5:15 PM,60.8,14.0,16,30.00,10.0,South,8.1,-,N/A,,Clear,170,2012-11-29 23:15:00
5:35 PM,55.4,14.0,20,30.00,10.0,SSE,8.1,-,N/A,,Clear,160,2012-11-29 23:35:00
5:55 PM,53.6,14.0,21,30.00,10.0,SSE,6.9,-,N/A,,Clear,150,2012-11-29 23:55:00
6:15 PM,53.6,12.2,19,30.00,10.0,SSE,6.9,-,N/A,,Clear,160,2012-11-30 00:15:00
6:35 PM,53.6,12.2,19,30.00,10.0,SSE,6.9,-,N/A,,Clear,160,2012-11-30 00:35:00
6:55 PM,53.6,12.2,19,30.00,10.0,SE,5.8,-,N/A,,Clear,140,2012-11-30 00:55:00
7:15 PM,51.8,12.2,21,30.00,10.0,SE,6.9,-,N/A,,Clear,130,2012-11-30 01:15:00
7:35 PM,53.6,12.2,19,30.01,10.0,SE,8.1,-,N/A,,Clear,130,2012-11-30 01:35:00
7:55 PM,53.6,12.2,19,30.01,10.0,SE,6.9,-,N/A,,Clear,130,2012-11-30 01:55:00
8:15 PM,46.4,10.4,23,30.01,10.0,SE,6.9,-,N/A,,Clear,140,2012-11-30 02:15:00
8:35 PM,46.4,12.2,25,30.02,10.0,SE,6.9,-,N/A,,Clear,140,2012-11-30 02:35:00
8:55 PM,46.4,12.2,25,30.02,10.0,SE,6.9,-,N/A,,Clear,140,2012-11-30 02:55:00
9:15 PM,46.4,12.2,25,30.01,10.0,SE,6.9,-,N/A,,Clear,140,2012-11-30 03:15:00
9:35 PM,50.0,12.2,22,30.02,10.0,SE,5.8,-,N/A,,Clear,140,2012-11-30 03:35:00
9:55 PM,50.0,12.2,22,30.02,10.0,SE,6.9,-,N/A,,Clear,140,2012-11-30 03:55:00
10:15 PM,46.4,12.2,25,30.02,10.0,SE,5.8,-,N/A,,Clear,140,2012-11-30 04:15:00
10:35 PM,46.4,12.2,25,30.02,10.0,SE,5.8,-,N/A,,Clear,140,2012-11-30 04:35:00
10:55 PM,44.6,14.0,29,30.02,10.0,SSE,5.8,-,N/A,,Clear,160,2012-11-30 04:55:00
11:15 PM,44.6,14.0,29,30.02,10.0,SSE,6.9,-,N/A,,Clear,160,2012-11-30 05:15:00
11:35 PM,42.8,15.8,34,30.02,10.0,SSE,6.9,-,N/A,,Clear,160,2012-11-30 05:35:00
11:55 PM,42.8,17.6,36,30.02,10.0,SE,8.1,-,N/A,,Clear,140,2012-11-30 05:55:00